Al Farabi 2
1 43805U 18099AZ 23235.17444656 .00007285 00000-0 54140-3 0 9998
2 43805 97.5568 296.9457 0011472 227.3987 132.6271 15.03246327257815
CHOMPTT
1 43855U 18104G 23234.16739392 .00028147 00000-0 61473-3 0 9999
2 43855 85.0275 121.1564 0014371 73.9727 286.3108 15.43939526260749
ISAT
1 43879U 18111D 23235.14306403 .00007137 00000-0 52891-3 0 9995
2 43879 97.6370 138.6818 0012957 299.3201 60.6730 15.03347969252378
UWE-4
1 43880U 18111E 23235.21546791 .00006844 00000-0 51048-3 0 9998
2 43880 97.6272 139.3704 0017234 308.0076 51.9592 15.03067969252439
Sparrow
1 43881U 18111F 23235.20047281 .00006841 00000-0 50258-3 0 9997
2 43881 97.6429 140.1682 0010444 352.4278 7.6788 15.03717278252454
Lume 1
1 43908U 18111AJ 23234.23617683 .00043126 00000-0 72533-3 0 9995
2 43908 97.1266 116.7137 0008969 330.8532 29.2219 15.51578547259615
FO-99
1 43937U 19003F 23235.05396929 .00094241 00000-0 10390-2 0 9992
2 43937 97.0794 261.8419 0009031 48.7152 311.4884 15.62750901256452
AstroCast 0.2
1 44083U 19018F 23235.11662497 .00097610 00000-0 12135-2 0 9996
2 44083 97.2577 295.8552 0001584 313.4347 46.6778 15.59647252244810
AISTechSat 3
1 44103U 19018AB 23236.76389476 .00031592 00000-0 66595-3 0 9991
2 44103 97.2461 294.9074 0007818 36.6935 323.4848 15.45154311245085
AISat 1
1 44104U 19018AC 23236.77200422 .00021551 00000-0 37486-3 0 9997
2 44104 97.3728 329.5128 0037234 9.0940 351.0977 15.50014132246334
Prox-1
1 44339U 19036A 23234.40240166 .00006834 00000-0 13416-2 0 9997
2 44339 24.0020 343.3015 0008904 280.0708 79.8780 14.60299889221378
Move-IIb
1 44398U 19038N 23235.48139443 .00071445 00000-0 13074-2 0 9998
2 44398 97.6628 221.9089 0013957 67.6085 292.6642 15.48996684229055
SONATE
1 44400U 19038Q 23235.48935118 .00010821 00000-0 46406-3 0 9992
2 44400 97.6890 214.6061 0022298 79.4492 280.9255 15.22698175228471
BeeSat 9
1 44412U 19038AC 23236.48288547 .00028026 00000-0 86305-3 0 9991
2 44412 97.6784 219.5510 0017057 71.0477 289.2611 15.33460220228611
JAISAT-1
1 44419U 19038F 23235.50633328 .00026556 00000-0 81289-3 0 9993
2 44419 97.6774 219.6461 0016389 70.9854 289.3162 15.33673206228844
Taurus 1
1 44530U 19059C 23236.78660099 .00004450 00000-0 11427-2 0 9991
2 44530 98.5581 345.6874 0012383 237.6461 122.3535 14.50693498208580
Duchifat 3
1 44854U 19089C 23236.79121297 .00009460 00000-0 61662-3 0 9999
2 44854 36.9623 40.9248 0006951 162.6505 197.4477 15.07419540203188
OPS-SAT
1 44878U 19092F 23235.09027336 .00031872 00000-0 85572-3 0 9998
2 44878 97.4743 64.8583 0007252 250.1108 109.9355 15.37853951204065
TO-108
1 44881U 19093C 23236.73112696 .00001154 00000-0 14939-3 0 9998
2 44881 97.8584 314.0130 0013990 209.8734 150.1682 14.82695471198957
FloripaSat 1
1 44885U 19093G 23236.75783715 .00003994 00000-0 45863-3 0 9994
2 44885 97.8652 317.1766 0013014 210.0428 150.0042 14.86352165199131
RS-44
1 44909U 19096E 23234.20823319 .00000009 00000-0 -10444-4 0 9990
2 44909 82.5218 304.0826 0217930 32.8909 328.5538 12.79722048170655
BY70-2
1 45857U 20042B 23236.82782865 .00012584 00000-0 12066-2 0 9996
2 45857 97.9220 317.0871 0009910 142.1429 218.0489 14.93227907169775
UPMSat 2
1 46276U 20061E 23235.12246327 .00009290 00000-0 37892-3 0 9998
2 46276 97.3410 301.3433 0002865 99.5325 260.6237 15.24645565164484
AmicalSat
1 46287U 20061R 23235.11909297 .00013299 00000-0 58838-3 0 9998
2 46287 97.3947 300.4285 0002210 173.9369 186.1894 15.21796850163880
SALSAT
1 46495U 20068K 23235.07023848 .00005303 00000-0 34458-3 0 9999
2 46495 97.7734 183.8242 0013536 250.0963 109.8806 15.08390725159151
CAPE 3
1 47309U 21002A 23234.37980516 .00044908 00000-0 90707-3 0 9992
2 47309 60.6747 163.7625 0009757 324.9804 35.0651 15.46154177144508
AO-109
1 47311U 21002C 23235.08335153 .00032859 00000-0 74816-3 0 9990
2 47311 60.6790 160.6674 0007212 324.4422 35.6193 15.42765855144609
ExoCube 2
1 47319U 21002L 23235.05558633 .00029805 00000-0 70097-3 0 9999
2 47319 60.6771 163.2518 0008262 323.0794 36.9733 15.41828823144513
UVSQ-SAT
1 47438U 21006AB 23235.07171015 .00015994 00000-0 61370-3 0 9990
2 47438 97.3782 291.2929 0009286 195.8103 164.2847 15.26519905142844
YUSAT 1
1 47439U 21006AC 23234.12367670 .00023963 00000-0 83371-3 0 9990
2 47439 97.3785 291.3985 0008852 195.6621 164.4347 15.29663701142767
SOMP 2b
1 47445U 21006AJ 23234.57004007 .00017352 00000-0 68267-3 0 9990
2 47445 97.3747 289.9417 0008911 203.4082 156.6752 15.25671796142739
IDEASSat
1 47458U 21006AX 23235.10526713 .00014938 00000-0 60131-3 0 9996
2 47458 97.3846 291.2679 0008456 200.1663 159.9242 15.24942530142794
CubeSX-Sirius-HSE
1 47951U 21022V 23236.74340726 .00010195 00000-0 55067-3 0 9994
2 47951 97.4875 133.0132 0020392 97.3940 262.9610 15.14724137133401
CubeSX-HSE
1 47952U 21022W 23236.77967006 .00009592 00000-0 51726-3 0 9991
2 47952 97.4877 133.1024 0020427 96.6047 263.7511 15.14798665133411
KSU-Cubesat
1 47954U 21022Y 23236.52524919 .00011430 00000-0 59836-3 0 9992
2 47954 97.4882 133.3295 0019759 95.9725 264.3761 15.15813938133126
GRBAlpha
1 47959U 21022AD 23236.76254538 .00009148 00000-0 49245-3 0 9996
2 47959 97.4878 133.1801 0020254 96.9608 263.3928 15.14881107132237
Orbicraft-Zorkiy
1 47960U 21022AE 23236.75232560 .00010179 00000-0 53525-3 0 9990
2 47960 97.4909 133.7012 0019747 95.8415 264.5070 15.15688719132947
STECCO
1 47962U 21022AG 23236.79368472 .00020518 00000-0 87522-3 0 9990
2 47962 97.4879 136.7670 0014767 84.3859 275.9061 15.22851060132473
MO-110
1 47964U 21022AJ 23234.24238337 .00021285 00000-0 88446-3 0 9994
2 47964 97.4894 134.9216 0016689 87.6685 272.6463 15.23702471132120
FEES
1 48082U 21022AL 23235.17768937 .00043360 00000-0 13693-2 0 9992
2 48082 97.4874 137.8648 0012579 80.3760 279.8902 15.32625989132102
TUBIN
1 48900U 21059X 23236.75059495 .00008598 00000-0 39427-3 0 9996
2 48900 97.6081 10.8776 0009593 49.1641 311.0424 15.20659431119590
IT-SPINS
1 49017U 21013G 23234.20638881 .00038201 00000-0 74059-3 0 9990
2 49017 51.5892 113.8784 0006837 196.5262 163.5503 15.47282712119913
LEDSAT
1 49069U 21073D 23235.17089037 .00007924 00000-0 42121-3 0 9996
2 49069 97.4772 304.9498 0022150 246.3521 113.5386 15.15339108111046
CUTE
1 49263U 21088D 23235.11857186 .00009645 00000-0 59656-3 0 9993
2 49263 97.5389 299.8003 0017930 38.6051 321.6457 15.09904612104382
TeikyoSat 4
1 49396U 21102B 23234.73437971 .00001991 00000-0 15403-3 0 9998
2 49396 97.5096 284.6594 0013140 203.0653 156.9984 15.02528883 97768
Z-Sat
1 49399U 21102E 23236.76278926 .00004094 00000-0 28891-3 0 9991
2 49399 97.4788 287.7549 0021593 192.3022 167.7681 15.05307907 98202
KOSEN 1
1 49402U 21102H 23236.42159974 .00005032 00000-0 33648-3 0 9999
2 49402 97.4721 288.0592 0020742 180.5120 179.6090 15.07223087 98236
HO-113
1 50466U 21131B 23236.80000469 .00000622 00000-0 21576-3 0 9996
2 50466 98.5497 318.1296 0003138 302.4301 57.6583 14.39017401 87226
Tevel-3
1 50988U 22002E 23236.74686552 .00021257 00000-0 77979-3 0 9994
2 50988 97.4277 303.3603 0006309 2.1328 357.9937 15.27971398 89226
